| time (UTC) | temp C | wind direction | speed KPH | gust KPH | rain 1hr cm | rain 24hr cm | rain mn cm | humidity % | barometer mb |
| 20260503050615 | 12 | 190 | 1.6 | 11.3 | 0.00 | 0.00 | 0.00 | 43 | 1010.5 |
| 20260503050118 | 12 | 235 | 3.2 | 16.1 | 0.00 | 0.00 | 0.00 | 43 | 1010.5 |
| 20260503045621 | 12 | 236 | 3.2 | 16.1 | 0.00 | 0.00 | 0.00 | 44 | 1010.4 |
| 20260503045125 | 12 | 162 | 6.4 | 14.5 | 0.00 | 0.00 | 0.00 | 43 | 1010.5 |
| 20260503044628 | 12 | 264 | 4.8 | 14.5 | 0.00 | 0.00 | 0.00 | 43 | 1010.5 |
| 20260503044129 | 12 | 236 | 3.2 | 14.5 | 0.00 | 0.00 | 0.00 | 44 | 1010.6 |
| 20260503043630 | 12 | 264 | 6.4 | 17.7 | 0.00 | 0.00 | 0.00 | 44 | 1010.7 |
| 20260503043113 | 12 | 240 | 4.8 | 17.7 | 0.00 | 0.00 | 0.00 | 44 | 1010.7 |
| 20260503042637 | 12 | 284 | 1.6 | 4.8 | 0.00 | 0.00 | 0.00 | 45 | 1010.7 |
| 20260503042119 | 12 | 141 | 1.6 | 4.8 | 0.00 | 0.00 | 0.00 | 45 | 1010.7 |
| 20260503041624 | 12 | 141 | 3.2 | 8.0 | 0.00 | 0.00 | 0.00 | 45 | 1010.7 |
| 20260503041128 | 12 | 224 | 0.0 | 8.0 | 0.00 | 0.00 | 0.00 | 46 | 1010.8 |
| 20260503040631 | 12 | 242 | 0.0 | 8.0 | 0.00 | 0.00 | 0.00 | 45 | 1010.8 |
| 20260503040117 | 12 | 161 | 0.0 | 1.6 | 0.00 | 0.00 | 0.00 | 47 | 1010.9 |
| 20260503035617 | 12 | 161 | 0.0 | 4.8 | 0.00 | 0.00 | 0.00 | 46 | 1010.9 |
| 20260503035121 | 12 | 161 | 0.0 | 4.8 | 0.00 | 0.00 | 0.00 | 45 | 1010.9 |
| 20260503034646 | 12 | 161 | 0.0 | 4.8 | 0.00 | 0.00 | 0.00 | 46 | 1011.0 |
| 20260503034129 | 12 | 161 | 0.0 | 4.8 | 0.00 | 0.00 | 0.00 | 46 | 1011.0 |
| 20260503033613 | 12 | 161 | 0.0 | 4.8 | 0.00 | 0.00 | 0.00 | 46 | 1011.1 |
| 20260503033136 | 12 | 161 | 1.6 | 4.8 | 0.00 | 0.00 | 0.00 | 44 | 1011.2 |
| 20260503032618 | 12 | 161 | 0.0 | 4.8 | 0.00 | 0.00 | 0.00 | 47 | 1011.2 |
| 20260503032123 | 12 | 161 | 1.6 | 4.8 | 0.00 | 0.00 | 0.00 | 44 | 1011.3 |
| 20260503031628 | 12 | 239 | 0.0 | 3.2 | 0.00 | 0.00 | 0.00 | 44 | 1011.3 |
| 20260503031131 | 12 | 239 | 0.0 | 3.2 | 0.00 | 0.00 | 0.00 | 44 | 1011.4 |
| 20260503030636 | 12 | 239 | 0.0 | 6.4 | 0.00 | 0.00 | 0.00 | 47 | 1011.5 |
| 20260503030118 | 12 | 226 | 1.6 | 6.4 | 0.00 | 0.00 | 0.00 | 45 | 1011.6 |
| 20260503025621 | 12 | 295 | 1.6 | 4.8 | 0.00 | 0.00 | 0.00 | 43 | 1011.6 |
| 20260503025124 | 12 | 295 | 0.0 | 1.6 | 0.00 | 0.00 | 0.00 | 46 | 1011.6 |
| 20260503024626 | 12 | 295 | 0.0 | 1.6 | 0.00 | 0.00 | 0.00 | 43 | 1011.6 |
| 20260503024152 | 12 | 295 | 0.0 | 3.2 | 0.00 | 0.00 | 0.00 | 44 | 1011.7 |
| 20260503023632 | 12 | 295 | 0.0 | 4.8 | 0.00 | 0.00 | 0.00 | 44 | 1011.6 |
| 20260503023134 | 12 | 295 | 0.0 | 3.2 | 0.00 | 0.00 | 0.00 | 47 | 1011.6 |
| 20260503022615 | 12 | 295 | 0.0 | 3.2 | 0.00 | 0.00 | 0.00 | 49 | 1011.6 |
| 20260503022118 | 12 | 295 | 0.0 | 3.2 | 0.00 | 0.00 | 0.00 | 44 | 1011.7 |
| 20260503021620 | 12 | 295 | 0.0 | 3.2 | 0.00 | 0.00 | 0.00 | 45 | 1011.7 |
| 20260503021124 | 11 | 295 | 0.0 | 3.2 | 0.00 | 0.00 | 0.00 | 53 | 1011.7 |
| 20260503020628 | 11 | 295 | 0.0 | 1.6 | 0.00 | 0.00 | 0.00 | 50 | 1011.7 |
| 20260503020134 | 12 | 295 | 0.0 | 4.8 | 0.00 | 0.00 | 0.00 | 48 | 1011.6 |
| 20260503015614 | 12 | 295 | 1.6 | 4.8 | 0.00 | 0.00 | 0.00 | 45 | 1011.7 |
| 20260503015137 | 12 | 295 | 1.6 | 4.8 | 0.00 | 0.00 | 0.00 | 47 | 1011.6 |
| 20260503014620 | 12 | 295 | 0.0 | 3.2 | 0.00 | 0.00 | 0.00 | 50 | 1011.7 |
| 20260503014124 | 12 | 295 | 1.6 | 3.2 | 0.00 | 0.00 | 0.00 | 48 | 1011.6 |
| 20260503013627 | 13 | 295 | 1.6 | 4.8 | 0.00 | 0.00 | 0.00 | 45 | 1011.6 |
| 20260503013131 | 13 | 295 | 1.6 | 4.8 | 0.00 | 0.00 | 0.00 | 47 | 1011.6 |
| 20260503012615 | 13 | 295 | 0.0 | 3.2 | 0.00 | 0.00 | 0.00 | 39 | 1011.6 |
| 20260503012138 | 13 | 295 | 1.6 | 3.2 | 0.00 | 0.00 | 0.00 | 39 | 1011.6 |
| 20260503011621 | 13 | 295 | 0.0 | 1.6 | 0.00 | 0.00 | 0.00 | 43 | 1011.7 |
| 20260503011125 | 13 | 295 | 0.0 | 1.6 | 0.00 | 0.00 | 0.00 | 43 | 1011.7 |
| 20260503010629 | 13 | 295 | 0.0 | 3.2 | 0.00 | 0.00 | 0.00 | 44 | 1011.7 |
| 20260503010131 | 13 | 295 | 1.6 | 6.4 | 0.00 | 0.00 | 0.00 | 43 | 1011.7 |
| 20260503005613 | 14 | 295 | 1.6 | 9.7 | 0.00 | 0.00 | 0.00 | 40 | 1011.8 |
| 20260503005114 | 15 | 260 | 1.6 | 9.7 | 0.00 | 0.00 | 0.00 | 38 | 1011.8 |
| 20260503004617 | 15 | 253 | 1.6 | 4.8 | 0.00 | 0.00 | 0.00 | 38 | 1011.8 |
| 20260503004121 | 15 | 253 | 1.6 | 11.3 | 0.00 | 0.00 | 0.00 | 34 | 1011.8 |
| 20260503003623 | 15 | 266 | 0.0 | 11.3 | 0.00 | 0.00 | 0.00 | 35 | 1011.9 |
| 20260503003128 | 15 | 279 | 4.8 | 12.9 | 0.00 | 0.00 | 0.00 | 35 | 1011.8 |
| 20260503002632 | 15 | 49 | 0.0 | 6.4 | 0.00 | 0.00 | 0.00 | 35 | 1011.8 |
| 20260503002113 | 15 | 49 | 1.6 | 12.9 | 0.00 | 0.00 | 0.00 | 34 | 1011.8 |
| 20260503001615 | 16 | 311 | 3.2 | 16.1 | 0.00 | 0.00 | 0.00 | 32 | 1011.9 |
| 20260503001118 | 15 | 209 | 4.8 | 8.0 | 0.00 | 0.00 | 0.00 | 33 | 1012.0 |
| 20260503000622 | 15 | 266 | 1.6 | 12.9 | 0.00 | 0.00 | 0.00 | 33 | 1012.0 |
| 20260503000126 | 16 | 266 | 6.4 | 12.9 | 0.00 | 0.00 | 0.00 | 32 | 1012.0 |
| 20260502235630 | 16 | 267 | 3.2 | 12.9 | 0.00 | 0.00 | 0.00 | 33 | 1012.0 |
| 20260502235131 | 16 | 271 | 6.4 | 12.9 | 0.00 | 0.00 | 0.00 | 33 | 1012.1 |
| 20260502234615 | 16 | 225 | 1.6 | 12.9 | 0.00 | 0.00 | 0.00 | 33 | 1012.1 |
| 20260502234116 | 16 | 238 | 6.4 | 14.5 | 0.00 | 0.00 | 0.00 | 34 | 1012.3 |
| 20260502233620 | 15 | 263 | 1.6 | 16.1 | 0.00 | 0.00 | 0.00 | 33 | 1012.3 |
| 20260502233122 | 16 | 250 | 8.0 | 20.9 | 0.00 | 0.00 | 0.00 | 33 | 1012.4 |
| 20260502232626 | 16 | 304 | 9.7 | 24.1 | 0.00 | 0.00 | 0.00 | 35 | 1012.4 |
| 20260502232129 | 16 | 225 | 11.3 | 24.1 | 0.00 | 0.00 | 0.00 | 31 | 1012.5 |
| 20260502231652 | 16 | 244 | 6.4 | 19.3 | 0.00 | 0.00 | 0.00 | 31 | 1012.4 |
| 20260502231136 | 16 | 220 | 11.3 | 17.7 | 0.00 | 0.00 | 0.00 | 31 | 1012.5 |
| 20260502230618 | 16 | 262 | 8.0 | 17.7 | 0.00 | 0.00 | 0.00 | 31 | 1012.6 |
| 20260502230140 | 16 | 261 | 6.4 | 17.7 | 0.00 | 0.00 | 0.00 | 31 | 1012.6 |
| 20260502225622 | 16 | 247 | 11.3 | 17.7 | 0.00 | 0.00 | 0.00 | 35 | 1012.7 |
| 20260502225125 | 16 | 257 | 8.0 | 20.9 | 0.00 | 0.00 | 0.00 | 35 | 1012.6 |
| 20260502224629 | 16 | 228 | 9.7 | 20.9 | 0.00 | 0.00 | 0.00 | 37 | 1012.7 |
| 20260502224131 | 16 | 206 | 11.3 | 19.3 | 0.00 | 0.00 | 0.00 | 33 | 1012.8 |
| 20260502223616 | 16 | 286 | 4.8 | 17.7 | 0.00 | 0.00 | 0.00 | 33 | 1012.8 |
| 20260502223139 | 16 | 265 | 8.0 | 17.7 | 0.00 | 0.00 | 0.00 | 31 | 1012.9 |
| 20260502222641 | 16 | 305 | 8.0 | 22.5 | 0.00 | 0.00 | 0.00 | 39 | 1013.0 |
| 20260502222143 | 16 | 274 | 6.4 | 22.5 | 0.00 | 0.00 | 0.00 | 34 | 1013.0 |
| 20260502221625 | 16 | 141 | 8.0 | 20.9 | 0.00 | 0.00 | 0.00 | 30 | 1013.1 |
| 20260502221129 | 16 | 248 | 6.4 | 29.0 | 0.00 | 0.00 | 0.00 | 30 | 1013.2 |
| 20260502220652 | 16 | 306 | 11.3 | 29.0 | 0.00 | 0.00 | 0.00 | 30 | 1013.2 |
| 20260502220116 | 16 | 242 | 11.3 | 24.1 | 0.00 | 0.00 | 0.00 | 31 | 1013.3 |
| 20260502215618 | 16 | 236 | 11.3 | 29.0 | 0.00 | 0.00 | 0.00 | 31 | 1013.3 |
| 20260502215124 | 16 | 264 | 12.9 | 30.6 | 0.00 | 0.00 | 0.00 | 32 | 1013.4 |
| 20260502214624 | 15 | 263 | 12.9 | 30.6 | 0.00 | 0.00 | 0.00 | 30 | 1013.4 |
| 20260502214128 | 16 | 252 | 9.7 | 20.9 | 0.00 | 0.00 | 0.00 | 34 | 1013.4 |
| 20260502213628 | 15 | 251 | 8.0 | 30.6 | 0.00 | 0.00 | 0.00 | 30 | 1013.4 |
| 20260502213114 | 15 | 334 | 11.3 | 30.6 | 0.00 | 0.00 | 0.00 | 30 | 1013.5 |
| 20260502212619 | 15 | 336 | 12.9 | 29.0 | 0.00 | 0.00 | 0.00 | 31 | 1013.5 |
| 20260502212121 | 16 | 252 | 11.3 | 17.7 | 0.00 | 0.00 | 0.00 | 33 | 1013.5 |
| 20260502211625 | 16 | 234 | 9.7 | 38.6 | 0.00 | 0.00 | 0.00 | 33 | 1013.7 |
| 20260502211129 | 15 | 65 | 11.3 | 38.6 | 0.00 | 0.00 | 0.00 | 33 | 1013.8 |
| 20260502210652 | 16 | 283 | 9.7 | 30.6 | 0.00 | 0.00 | 0.00 | 32 | 1013.9 |
| 20260502210153 | 15 | 313 | 20.9 | 30.6 | 0.00 | 0.00 | 0.00 | 34 | 1013.9 |
| 20260502205614 | 16 | 313 | 8.0 | 32.2 | 0.00 | 0.00 | 0.00 | 35 | 1014.1 |
| 20260502205115 | 15 | 266 | 11.3 | 32.2 | 0.00 | 0.00 | 0.00 | 35 | 1014.1 |
| 20260502204617 | 15 | 257 | 11.3 | 24.1 | 0.00 | 0.00 | 0.00 | 35 | 1014.1 |
| 20260502204119 | 15 | 328 | 8.0 | 24.1 | 0.00 | 0.00 | 0.00 | 32 | 1014.2 |
| 20260502203622 | 15 | 338 | 12.9 | 25.7 | 0.00 | 0.00 | 0.00 | 34 | 1014.3 |
| 20260502203126 | 15 | 360 | 17.7 | 25.7 | 0.00 | 0.00 | 0.00 | 32 | 1014.3 |
| 20260502202651 | 15 | 307 | 16.1 | 25.7 | 0.00 | 0.00 | 0.00 | 33 | 1014.5 |
| 20260502202133 | 15 | 313 | 19.3 | 29.0 | 0.00 | 0.00 | 0.00 | 39 | 1014.6 |
| 20260502201615 | 15 | 275 | 11.3 | 29.0 | 0.00 | 0.00 | 0.00 | 32 | 1014.7 |
| 20260502201137 | 15 | 198 | 11.3 | 27.4 | 0.00 | 0.00 | 0.00 | 35 | 1014.7 |
| 20260502200621 | 15 | 13 | 11.3 | 32.2 | 0.00 | 0.00 | 0.00 | 37 | 1014.8 |
| 20260502200125 | 15 | 225 | 17.7 | 32.2 | 0.00 | 0.00 | 0.00 | 34 | 1014.8 |
| 20260502195627 | 15 | 329 | 11.3 | 25.7 | 0.00 | 0.00 | 0.00 | 33 | 1014.8 |
| 20260502195130 | 15 | 96 | 14.5 | 25.7 | 0.00 | 0.00 | 0.00 | 31 | 1015.0 |
| 20260502194614 | 15 | 304 | 8.0 | 24.1 | 0.00 | 0.00 | 0.00 | 35 | 1015.2 |
| 20260502194119 | 15 | 350 | 8.0 | 27.4 | 0.00 | 0.00 | 0.00 | 32 | 1015.2 |
| 20260502193620 | 15 | 223 | 16.1 | 27.4 | 0.00 | 0.00 | 0.00 | 38 | 1015.2 |
| 20260502193126 | 15 | 341 | 11.3 | 29.0 | 0.00 | 0.00 | 0.00 | 34 | 1015.2 |
| 20260502192630 | 14 | 332 | 14.5 | 29.0 | 0.00 | 0.00 | 0.00 | 34 | 1015.3 |
| 20260502192112 | 14 | 325 | 17.7 | 25.7 | 0.00 | 0.00 | 0.00 | 33 | 1015.4 |
| 20260502191616 | 14 | 350 | 14.5 | 25.7 | 0.00 | 0.00 | 0.00 | 33 | 1015.5 |
| 20260502191120 | 14 | 252 | 16.1 | 29.0 | 0.00 | 0.00 | 0.00 | 34 | 1015.6 |
| 20260502190623 | 14 | 346 | 12.9 | 30.6 | 0.00 | 0.00 | 0.00 | 34 | 1015.6 |
| 20260502190143 | 14 | 251 | 19.3 | 30.6 | 0.00 | 0.00 | 0.00 | 40 | 1015.8 |
| 20260502185626 | 14 | 210 | 6.4 | 19.3 | 0.00 | 0.00 | 0.00 | 36 | 1015.6 |
| 20260502185128 | 13 | 302 | 11.3 | 29.0 | 0.00 | 0.00 | 0.00 | 35 | 1015.8 |
| 20260502184614 | 14 | 243 | 12.9 | 32.2 | 0.00 | 0.00 | 0.00 | 35 | 1016.1 |
| 20260502184117 | 14 | 323 | 20.9 | 32.2 | 0.00 | 0.00 | 0.00 | 40 | 1016.0 |
| 20260502183621 | 13 | 248 | 8.0 | 27.4 | 0.00 | 0.00 | 0.00 | 34 | 1016.1 |
| 20260502183124 | 13 | 318 | 19.3 | 25.7 | 0.00 | 0.00 | 0.00 | 33 | 1016.1 |
| 20260502182129 | 13 | 242 | 14.5 | 29.0 | 0.00 | 0.00 | 0.00 | 36 | 1016.3 |
| 20260502181613 | 13 | 246 | 14.5 | 32.2 | 0.00 | 0.00 | 0.00 | 36 | 1016.4 |
| 20260502181116 | 14 | 259 | 20.9 | 32.2 | 0.00 | 0.00 | 0.00 | 37 | 1016.4 |
| 20260502180620 | 13 | 335 | 11.3 | 35.4 | 0.00 | 0.00 | 0.00 | 37 | 1016.3 |
| 20260502180123 | 13 | 350 | 17.7 | 35.4 | 0.00 | 0.00 | 0.00 | 34 | 1016.4 |
| 20260502170118 | 13 | 333 | 14.5 | 30.6 | 0.00 | 0.00 | 0.00 | 34 | 1017.0 |
| 20260502164128 | 13 | 314 | 11.3 | 27.4 | 0.00 | 0.00 | 0.00 | 41 | 1017.1 |
| 20260502163612 | 12 | 251 | 20.9 | 27.4 | 0.00 | 0.00 | 0.00 | 37 | 1017.3 |
| 20260502163117 | 12 | 265 | 9.7 | 29.0 | 0.00 | 0.00 | 0.00 | 37 | 1017.3 |
| 20260502162620 | 12 | 332 | 11.3 | 32.2 | 0.00 | 0.00 | 0.00 | 42 | 1017.3 |
| 20260502162123 | 11 | 269 | 16.1 | 32.2 | 0.00 | 0.00 | 0.00 | 37 | 1017.5 |
| 20260502161625 | 12 | 275 | 6.4 | 16.1 | 0.00 | 0.00 | 0.00 | 39 | 1017.5 |
| 20260502161127 | 12 | 260 | 8.0 | 24.1 | 0.00 | 0.00 | 0.00 | 40 | 1017.5 |
| 20260502160630 | 12 | 268 | 9.7 | 29.0 | 0.00 | 0.00 | 0.00 | 48 | 1017.5 |
| 20260502160114 | 12 | 286 | 16.1 | 29.0 | 0.00 | 0.00 | 0.00 | 48 | 1017.6 |
| 20260502152118 | 10 | 302 | 8.0 | 16.1 | 0.00 | 0.00 | 0.00 | 50 | 1017.9 |
| 20260502151621 | 10 | 360 | 6.4 | 16.1 | 0.00 | 0.00 | 0.00 | 48 | 1017.9 |
| 20260502151126 | 10 | 263 | 6.4 | 16.1 | 0.00 | 0.00 | 0.00 | 53 | 1017.9 |
| 20260502150627 | 10 | 266 | 1.6 | 12.9 | 0.00 | 0.00 | 0.00 | 52 | 1018.0 |
| 20260502150151 | 10 | 266 | 4.8 | 12.9 | 0.00 | 0.00 | 0.00 | 59 | 1018.1 |
| 20260502130632 | 4 | 239 | 6.4 | 12.9 | 0.00 | 0.00 | 0.00 | 69 | 1018.9 |
| 20260502130115 | 3 | 235 | 6.4 | 11.3 | 0.00 | 0.00 | 0.00 | 69 | 1018.9 |
| 20260502123641 | 3 | 225 | 3.2 | 11.3 | 0.00 | 0.00 | 0.00 | 72 | 1018.9 |
| 20260502123143 | 2 | 284 | 1.6 | 6.4 | 0.00 | 0.00 | 0.00 | 73 | 1018.9 |
| 20260502122624 | 2 | 189 | 1.6 | 11.3 | 0.00 | 0.00 | 0.00 | 74 | 1018.9 |
| 20260502122130 | 2 | 244 | 3.2 | 11.3 | 0.00 | 0.00 | 0.00 | 75 | 1018.9 |
| 20260502121633 | 2 | 257 | 1.6 | 8.0 | 0.00 | 0.00 | 0.00 | 76 | 1018.8 |
| 20260502121115 | 1 | 257 | 1.6 | 8.0 | 0.00 | 0.00 | 0.00 | 79 | 1018.8 |
| 20260502120639 | 1 | 258 | 1.6 | 8.0 | 0.00 | 0.00 | 0.00 | 84 | 1018.8 |
| 20260502120123 | 0 | 43 | 1.6 | 1.6 | 0.00 | 0.00 | 0.00 | 86 | 1018.8 |
| 20260502115626 | 0 | 43 | 0.0 | 0.0 | 0.00 | 0.00 | 0.00 | 85 | 1018.8 |
| 20260502115148 | 0 | 43 | 0.0 | 0.0 | 0.00 | 0.00 | 0.00 | 86 | 1018.7 |
| 20260502114630 | 0 | 43 | 0.0 | 0.0 | 0.00 | 0.00 | 0.00 | 86 | 1018.6 |
| 20260502114112 | 0 | 43 | 0.0 | 0.0 | 0.00 | 0.00 | 0.00 | 87 | 1018.6 |
| 20260502113614 | 0 | 43 | 0.0 | 0.0 | 0.00 | 0.00 | 0.00 | 87 | 1018.6 |
| 20260502113133 | 0 | 43 | 0.0 | 0.0 | 0.00 | 0.00 | 0.00 | 87 | 1018.6 |
| 20260502112614 | 0 | 43 | 0.0 | 0.0 | 0.00 | 0.00 | 0.00 | 86 | 1018.5 |
| 20260502112117 | 0 | 43 | 0.0 | 0.0 | 0.00 | 0.00 | 0.00 | 86 | 1018.5 |
| 20260502111620 | 0 | 43 | 0.0 | 0.0 | 0.00 | 0.00 | 0.00 | 85 | 1018.5 |
| 20260502111124 | 0 | 43 | 0.0 | 0.0 | 0.00 | 0.00 | 0.00 | 85 | 1018.5 |
| 20260502110627 | 0 | 43 | 0.0 | 0.0 | 0.00 | 0.00 | 0.00 | 84 | 1018.5 |
| 20260502110128 | 0 | 43 | 0.0 | 1.6 | 0.00 | 0.00 | 0.00 | 84 | 1018.5 |
| 20260502105651 | 0 | 43 | 0.0 | 1.6 | 0.00 | 0.00 | 0.00 | 83 | 1018.5 |
| 20260502105131 | 0 | 43 | 0.0 | 0.0 | 0.00 | 0.00 | 0.00 | 83 | 1018.5 |
| 20260502104613 | 0 | 43 | 0.0 | 0.0 | 0.00 | 0.00 | 0.00 | 83 | 1018.6 |
| 20260502104119 | 0 | 43 | 0.0 | 0.0 | 0.00 | 0.00 | 0.00 | 82 | 1018.6 |
| 20260502103622 | 0 | 43 | 0.0 | 0.0 | 0.00 | 0.00 | 0.00 | 82 | 1018.6 |
| 20260502103125 | 0 | 43 | 0.0 | 0.0 | 0.00 | 0.00 | 0.00 | 82 | 1018.6 |
| 20260502102629 | 0 | 43 | 0.0 | 0.0 | 0.00 | 0.00 | 0.00 | 81 | 1018.6 |
| 20260502102115 | 0 | 43 | 0.0 | 0.0 | 0.00 | 0.00 | 0.00 | 81 | 1018.7 |
| 20260502101620 | 0 | 43 | 0.0 | 0.0 | 0.00 | 0.00 | 0.00 | 81 | 1018.6 |
| 20260502101124 | 0 | 43 | 0.0 | 0.0 | 0.00 | 0.00 | 0.00 | 80 | 1018.7 |
| 20260502100628 | 0 | 43 | 0.0 | 0.0 | 0.00 | 0.00 | 0.00 | 80 | 1018.7 |
| 20260502100130 | 0 | 43 | 0.0 | 0.0 | 0.00 | 0.00 | 0.00 | 80 | 1018.7 |
| 20260502091121 | 0 | 43 | 0.0 | 0.0 | 0.00 | 0.00 | 0.00 | 77 | 1018.6 |
| 20260502090625 | 0 | 43 | 0.0 | 0.0 | 0.00 | 0.00 | 0.00 | 77 | 1018.6 |
| 20260502090130 | 0 | 43 | 0.0 | 0.0 | 0.00 | 0.00 | 0.00 | 77 | 1018.5 |
| 20260502071139 | 1 | 43 | 0.0 | 0.0 | 0.00 | 0.00 | 0.00 | 73 | 1018.6 |
| 20260502070622 | 1 | 43 | 0.0 | 0.0 | 0.00 | 0.00 | 0.00 | 74 | 1018.6 |
| 20260502070127 | 1 | 43 | 0.0 | 0.0 | 0.00 | 0.00 | 0.00 | 73 | 1018.6 |
| 20260502065611 | 1 | 43 | 0.0 | 0.0 | 0.00 | 0.00 | 0.00 | 72 | 1018.7 |
| 20260502065112 | 1 | 43 | 0.0 | 0.0 | 0.00 | 0.00 | 0.00 | 72 | 1018.7 |
| 20260502064615 | 1 | 43 | 0.0 | 0.0 | 0.00 | 0.00 | 0.00 | 72 | 1018.7 |
| 20260502064119 | 1 | 43 | 0.0 | 0.0 | 0.00 | 0.00 | 0.00 | 72 | 1018.7 |
| 20260502063641 | 1 | 43 | 0.0 | 0.0 | 0.00 | 0.00 | 0.00 | 71 | 1018.8 |
| 20260502063127 | 1 | 43 | 0.0 | 0.0 | 0.00 | 0.00 | 0.00 | 71 | 1018.8 |
| 20260502062611 | 1 | 43 | 0.0 | 1.6 | 0.00 | 0.00 | 0.00 | 70 | 1018.7 |
| 20260502062114 | 1 | 43 | 0.0 | 1.6 | 0.00 | 0.00 | 0.00 | 71 | 1018.8 |
| 20260502061637 | 1 | 43 | 0.0 | 0.0 | 0.00 | 0.00 | 0.00 | 70 | 1018.7 |
| 20260502055623 | 1 | 43 | 0.0 | 0.0 | 0.00 | 0.00 | 0.00 | 71 | 1018.7 |
| 20260502055127 | 1 | 43 | 0.0 | 0.0 | 0.00 | 0.00 | 0.00 | 71 | 1018.7 |
| 20260502054629 | 1 | 43 | 0.0 | 0.0 | 0.00 | 0.00 | 0.00 | 70 | 1018.7 |
| 20260502054111 | 1 | 43 | 0.0 | 0.0 | 0.00 | 0.00 | 0.00 | 69 | 1018.7 |
| 20260502053616 | 2 | 43 | 0.0 | 1.6 | 0.00 | 0.00 | 0.00 | 67 | 1018.6 |
| 20260502053122 | 2 | 43 | 0.0 | 1.6 | 0.00 | 0.00 | 0.00 | 66 | 1018.7 |
| 20260502052627 | 2 | 43 | 0.0 | 1.6 | 0.00 | 0.00 | 0.00 | 66 | 1018.7 |
| 20260502052129 | 2 | 43 | 0.0 | 1.6 | 0.00 | 0.00 | 0.00 | 64 | 1018.7 |
| 20260502051612 | 2 | 43 | 0.0 | 3.2 | 0.00 | 0.00 | 0.00 | 65 | 1018.6 |